ARIANE 5 R/B, 57216

Orbit data source: Space-Track

ARIANE 5 R/B, 57216 is space debris in HEO originally from a launch on Wed, 05 Jul 2023 UTC launched from the French Guiana (FRGUI). Debris objects in space refer to the collection of defunct objects orbiting the Earth. Examples of debris include non-operational satellites, rocket bodies, and fragments generated from explosions, collisions, or faulty payload assembly.

Loading next visibility...
Identifier
57216, 2023-093D
Orbit
HEO
Country
Flag of FRFR
Related business
Manufacturer
ArianeGroup
Mission
Spacecraft
Bus & Motor
ESC-A, Unknown motor
Mass
~5,000 kg wet, ~5,000 kg dry
Launch date (UTC)
2023-07-05 (3 years ago)
Launch vehicle
Unknown
Launch site
French Guiana (FRGUI)
Object type
Payload
Rocket body
Debris
Shape & HBR
Cyl + 1 Nozzle, 3.5 m
Radar Cross Section
41.627 m², Large (>1 m²)

Expand to show TLE details & history
Last TLE update: 2 days ago

TLE from 2 days ago
0 ARIANE 5 R/B
1 57216U 23093D   26170.95762700  .00000330  00000-0  29395-3 0  9997
2 57216   3.0229 357.9019 7182642 359.2622   0.0596  2.37469298 25256
Epoch: 2026-06-19T22:58Z
TLE epoch observation values (Epoch: 2026-06-19T22:58:58.972Z)
Latitude
0.0004°
Longitude
104.98321°
Altitude
329.027 km
Speed
10.102 km/s
True Right ascension
23h 51m 37s
True Declination
0° 00' 01"
Sunlit
Object was in daylight at epoch
Visualization orbit readout
Latitude
Unknown
Longitude
Unknown
Altitude
Unknown
Speed
Unknown
Apparent Right ascension
Unknown
Apparent Declination
Unknown
Sunlit
N/A
Visualization observer readout
Local Sidereal Time
21:30:42
Azimuth
Unknown
Elevation
Unknown
Doppler factor
Unknown
Orbital elements
Apogee altitude
34,408.774 km
Perigee altitude
309.503 km
Semi-major axis
23,737.276 km
Eccentricity
0.71826
Inclination
3.0229°
RAAN
357.9019°
Arg. of periapsis
359.2622°
True anomaly
0.52242°
Mean anomaly
0.0596°
Eccentric anomaly
0.21154°
Mean motion
0.59347 °/min
Orbital period
606.6 mins
BSTAR
0.00029395
Loading maneuver chart data...
Computing Atmospheric mass density...
Loading historical data...
Loading historical data...
Loading historical data...
Loading historical data...
Loading historical data...
Loading historical data...
Loading historical data...
Other satellites on launch #93 in the year 2023 (2023-07-05 UTC)

Documentation

Showing up to 5 results
|